User: anonymous   Login
Location: Unspecified
(0.0000°N, 0.0000°E)
Time: 10:15:04
(UTC+00:00)
Language:

PAYLOAD E - Orbit

View from above orbital plane
View from above orbital plane
View from above satellite
View from above satellite

Ground track
Ground track

The orbit data is extracted from the following two-line orbital elements,

1 27059U 01058E   17080.87492752 +.00000004 +00000-0 -37160-4 0  9993
2 27059 082.5427 213.3249 0000991 359.1871 000.9220 12.61476827701342
Epoch (UTC): 21 March 2017 20:59:53
Eccentricity: 0.0000991
inclination: 82.5427°
perigee height: 1416 km
apogee height: 1417 km
right ascension of ascending node: 213.3249°
argument of perigee: 359.1871°
revolutions per day: 12.61476827
mean anomaly at epoch: 0.9220°
orbit number at epoch: 70134

The dashed part of the orbit path shows where the satellite is in the earth's shadow,  

DLR